Toledo Metcalf, OH

12:38 PM EDT on April 24, 2018 (GMT -0400)
Metcalf

Weather History for KTDZ - January, 2013

Change the Weather History Date:

Wednesday, January 9, 2013

  Actual Average (KTOL) Record (KTOL)
Temperature  
Mean Temperature 38 °F -  
Max Temperature 46 °F 27 °F 59 °F (1880)
Min Temperature 30 °F 14 °F -12 °F (1875)
Degree Days  
Heating Degree Days 27    
Moisture  
Dew Point 31 °F    
Average Humidity 75    
Maximum Humidity 89    
Minimum Humidity 58    
Precipitation  
Precipitation 0.00 in - - ()
Sea Level Pressure  
Sea Level Pressure 30.25 in    
Wind  
Wind Speed 12 mph (SW)    
Max Wind Speed 23 mph    
Max Gust Speed 29 mph    
Visibility 10 miles    
Events      
Averages and records for this station are not official NWS values.
T = Trace of Precipitation, MM = Missing Value Source: NWS Daily Summary

Daily Weather History Graph

Daily Weather History Graph

Search for Another Location

Airport or City:

Astronomy

Jan. 09, 2013 Rise Set
Actual Time 8:00 AM EST 5:22 PM EST
Civil Twilight 7:29 AM EST 5:53 PM EST
Nautical Twilight 6:54 AM EST 6:28 PM EST
Astronomical Twilight 6:21 AM EST 7:01 PM EST
Moon 5:38 AM EST (1/9) 3:23 PM EST (1/9)
Length of Visible Light 10h 24m
Length of Day
9h 22m
Waning Crescent, 6% of the Moon is Illuminated
Jan 9
Waning Crescent
Jan 11
New
Jan 18
First Quarter
Jan 26
Full
Feb 3
Last Quarter

Hourly Weather History & Observations

Time (EST) Temp. Windchill Dew Point Humidity Pressure Visibility Wind Dir Wind Speed Gust Speed Precip Events Conditions
12:53 AM 33.1 °F 25.5 °F 27.0 °F 78% 30.20 in 8.0 mi South 9.2 mph - N/A   Clear
1:53 AM 30.9 °F 23.5 °F 27.0 °F 85% 30.17 in 8.0 mi South 8.1 mph - N/A   Clear
2:53 AM 35.1 °F 27.4 °F 28.0 °F 76% 30.16 in 10.0 mi South 10.4 mph - N/A   Clear
3:53 AM 37.9 °F 30.0 °F 30.0 °F 73% 30.14 in 10.0 mi South 12.7 mph - N/A   Overcast
4:53 AM 37.9 °F 30.0 °F 30.0 °F 73% 30.12 in 10.0 mi SSW 12.7 mph - N/A   Overcast
5:53 AM 39.9 °F 31.8 °F 32.0 °F 73% 30.12 in 10.0 mi SSW 15.0 mph - N/A   Overcast
6:53 AM 39.9 °F 32.5 °F 32.0 °F 73% 30.11 in 10.0 mi SSW 12.7 mph - 0.00 in   Overcast
7:53 AM 39.9 °F 31.1 °F 32.0 °F 73% 30.13 in 10.0 mi SW 17.3 mph - N/A   Scattered Clouds
8:53 AM 39.0 °F 30.6 °F 32.0 °F 76% 30.16 in 10.0 mi SW 15.0 mph - N/A   Clear
9:53 AM 39.9 °F 31.8 °F 33.1 °F 77% 30.19 in 10.0 mi SW 15.0 mph - N/A   Clear
10:53 AM 42.1 °F 34.9 °F 34.0 °F 73% 30.22 in 10.0 mi WSW 13.8 mph 21.9 mph N/A   Clear
11:53 AM 43.0 °F 35.4 °F 33.1 °F 68% 30.22 in 10.0 mi WSW 16.1 mph 25.3 mph N/A   Clear
12:53 PM 45.0 °F 37.6 °F 33.1 °F 63% 30.20 in 10.0 mi WSW 17.3 mph 25.3 mph N/A   Clear
1:53 PM 45.0 °F 37.6 °F 34.0 °F 65% 30.21 in 10.0 mi SW 17.3 mph 24.2 mph N/A   Clear
2:53 PM 46.0 °F 37.8 °F 32.0 °F 58% 30.23 in 10.0 mi WSW 23.0 mph 28.8 mph N/A   Clear
3:53 PM 45.0 °F 37.6 °F 32.0 °F 60% 30.25 in 10.0 mi WSW 17.3 mph 23.0 mph N/A   Clear
4:53 PM 42.1 °F 36.1 °F 32.0 °F 67% 30.29 in 10.0 mi SW 10.4 mph - N/A   Clear
5:53 PM 39.0 °F 31.8 °F 32.0 °F 76% 30.32 in 10.0 mi SW 11.5 mph - N/A   Clear
6:53 PM 37.0 °F 29.3 °F 30.9 °F 79% 30.35 in 10.0 mi SW 11.5 mph - N/A   Clear
7:53 PM 35.1 °F 28.6 °F 30.0 °F 82% 30.38 in 10.0 mi WSW 8.1 mph - N/A   Clear
8:53 PM 34.0 °F 26.6 °F 28.9 °F 82% 30.41 in 10.0 mi SW 9.2 mph - N/A   Clear
9:53 PM 33.1 °F 27.7 °F 28.9 °F 85% 30.44 in 10.0 mi WSW 5.8 mph - N/A   Clear
10:53 PM 30.9 °F 26.2 °F 28.0 °F 89% 30.47 in 10.0 mi SW 4.6 mph - N/A   Clear
11:53 PM 30.0 °F 24.1 °F 27.0 °F 88% 30.51 in 9.0 mi SW 5.8 mph - N/A   Clear